04-08-2023, 00:00:01,    300,    0.0,   11.7,   0.00,   0.00, 1011.5,    0.6, -999.0
04-08-2023, 00:00:11,    300,    0.0,   11.6,   0.00,   0.00, 1011.5,    0.5, -999.0
04-08-2023, 00:00:21,    300,    0.0,   11.6,   0.00,   0.00, 1011.5,    0.4, -999.0
04-08-2023, 00:00:31,    300,    0.0,   11.6,   0.00,   0.00, 1011.5,    0.4, -999.0
04-08-2023, 00:00:41,    300,    0.0,   11.6,   0.00,   0.00, 1011.5,    0.7, -999.0
04-08-2023, 00:00:51,    300,    0.0,   11.6,   0.00,   0.00, 1011.5,    0.7, -999.0
04-08-2023, 00:01:01,    299,    0.0,   11.6,   0.00,   0.00, 1011.4,    0.7, -999.0
04-08-2023, 00:01:11,    300,    0.0,   11.6,   0.00,   0.00, 1011.4,    0.6, -999.0
04-08-2023, 00:01:21,    300,    0.0,   11.5,   0.00,   0.00, 1011.5,    0.5, -999.0
04-08-2023, 00:01:31,    300,    0.0,   11.6,   0.00,   0.00, 1011.5,    0.5, -999.0
04-08-2023, 00:01:41,    300,    0.0,   11.6,   0.00,   0.00, 1011.5,    0.5, -999.0
04-08-2023, 00:01:51,    299,    0.0,   11.6,   0.00,   0.00, 1011.5,    0.4, -999.0
04-08-2023, 00:02:01,    300,    0.0,   11.6,   0.00,   0.00, 1011.5,    0.6, -999.0
04-08-2023, 00:02:11,    300,    0.0,   11.6,   0.00,   0.00, 1011.5,    0.9, -999.0
04-08-2023, 00:02:21,    299,    0.0,   11.7,   0.00,   0.00, 1011.5,    0.6, -999.0
04-08-2023, 00:02:31,    300,    0.2,   11.6,   0.00,   0.00, 1011.6,    0.5, -999.0
04-08-2023, 00:02:40,    299,    0.3,   11.7,   0.00,   0.00, 1011.6,    0.7, -999.0
04-08-2023, 00:02:51,    299,    0.0,   11.7,   0.00,   0.00, 1011.5,    0.7, -999.0
04-08-2023, 00:03:01,    299,    0.0,   11.7,   0.00,   0.00, 1011.5,    0.5, -999.0
04-08-2023, 00:03:10,    299,    0.0,   11.6,   0.00,   0.00, 1011.5,    0.4, -999.0
04-08-2023, 00:03:20,    299,    0.0,   11.6,   0.00,   0.00, 1011.5,    0.8, -999.0
04-08-2023, 00:03:31,    299,    0.0,   11.6,   0.00,   0.00, 1011.5,    0.5, -999.0
04-08-2023, 00:03:41,    299,    0.0,   11.7,   0.00,   0.00, 1011.5,    0.4, -999.0
04-08-2023, 00:03:50,    299,    0.0,   11.6,   0.00,   0.00, 1011.5,    0.7, -999.0
04-08-2023, 00:04:01,    300,    0.0,   11.6,   0.00,   0.00, 1011.5,    0.7, -999.0
04-08-2023, 00:04:11,    300,    0.0,   11.7,   0.00,   0.00, 1011.5,    0.4, -999.0
04-08-2023, 00:04:20,    300,    0.0,   11.6,   0.00,   0.00, 1011.5,    0.7, -999.0
04-08-2023, 00:04:30,    300,    0.0,   11.6,   0.00,   0.00, 1011.5,    0.7, -999.0
04-08-2023, 00:04:41,    299,    0.0,   11.6,   0.00,   0.00, 1011.5,    0.5, -999.0
04-08-2023, 00:04:50,    300,    0.0,   11.7,   0.00,   0.00, 1011.5,    0.6, -999.0
04-08-2023, 00:05:00,    299,    0.0,   11.6,   0.00,   0.00, 1011.5,    0.4, -999.0
04-08-2023, 00:05:10,    299,    0.0,   11.6,   0.00,   0.00, 1011.5,    0.6, -999.0
04-08-2023, 00:05:20,    299,    0.0,   11.7,   0.00,   0.00, 1011.5,    0.7, -999.0
04-08-2023, 00:05:30,    299,    0.0,   11.6,   0.00,   0.00, 1011.5,    0.7, -999.0
04-08-2023, 00:05:40,    300,    0.0,   11.6,   0.00,   0.00, 1011.5,    0.4, -999.0
04-08-2023, 00:05:50,    299,    0.0,   11.6,   0.00,   0.00, 1011.5,    0.5, -999.0
04-08-2023, 00:06:00,    300,    0.0,   11.6,   0.00,   0.00, 1011.5,    0.4, -999.0
04-08-2023, 00:06:10,    299,    0.0,   11.7,   0.00,   0.00, 1011.6,    0.7, -999.0
04-08-2023, 00:06:20,    298,    0.0,   11.7,   0.00,   0.00, 1011.5,    0.5, -999.0
04-08-2023, 00:06:30,    297,    0.0,   11.6,   0.00,   0.00, 1011.6,    0.3, -999.0
04-08-2023, 00:06:40,    297,    0.0,   11.6,   0.00,   0.00, 1011.5,    0.6, -999.0
04-08-2023, 00:06:50,    297,    0.0,   11.6,   0.00,   0.00, 1011.5,    0.9, -999.0
04-08-2023, 00:07:00,    297,    0.0,   11.6,   0.00,   0.00, 1011.5,    0.6, -999.0
04-08-2023, 00:07:10,    298,    0.0,   11.6,   0.00,   0.00, 1011.6,    0.5, -999.0
04-08-2023, 00:07:20,    297,    0.0,   11.6,   0.00,   0.00, 1011.5,    0.6, -999.0
04-08-2023, 00:07:30,    297,    0.0,   11.6,   0.00,   0.00, 1011.5,    0.5, -999.0
04-08-2023, 00:07:40,    298,    0.0,   11.6,   0.00,   0.00, 1011.6,    0.5, -999.0
04-08-2023, 00:07:50,    298,    0.0,   11.6,   0.00,   0.00, 1011.5,    0.6, -999.0
04-08-2023, 00:08:00,    298,    0.0,   11.6,   0.00,   0.00, 1011.6,    0.4, -999.0
04-08-2023, 00:08:10,    297,    0.0,   11.6,   0.00,   0.00, 1011.5,    0.5, -999.0
04-08-2023, 00:08:20,    297,    0.0,   11.6,   0.00,   0.00, 1011.6,    0.7, -999.0
04-08-2023, 00:08:30,    297,    0.0,   11.5,   0.00,   0.00, 1011.6,    0.6, -999.0
04-08-2023, 00:08:40,    294,    0.5,   11.6,   0.00,   0.00, 1011.7,    0.7, -999.0
04-08-2023, 00:08:50,    294,    0.0,   11.6,   0.00,   0.00, 1011.6,    0.7, -999.0
04-08-2023, 00:09:00,    294,    0.0,   11.6,   0.00,   0.00, 1011.6,    0.6, -999.0
04-08-2023, 00:09:10,    294,    0.0,   11.6,   0.00,   0.00, 1011.6,    0.6, -999.0
04-08-2023, 00:09:20,    295,    0.0,   11.6,   0.00,   0.00, 1011.6,    0.5, -999.0
04-08-2023, 00:09:30,    294,    0.0,   11.5,   0.00,   0.00, 1011.6,    0.5, -999.0
04-08-2023, 00:09:39,    294,    0.0,   11.6,   0.00,   0.00, 1011.6,    0.6, -999.0
04-08-2023, 00:09:50,    294,    0.0,   11.6,   0.00,   0.00, 1011.6,    0.8, -999.0
04-08-2023, 00:10:00,    294,    0.0,   11.6,   0.00,   0.00, 1011.6,    0.6, -999.0
04-08-2023, 00:10:10,    294,    0.0,   11.6,   0.00,   0.00, 1011.6,    0.7, -999.0
04-08-2023, 00:10:19,    294,    0.0,   11.6,   0.00,   0.00, 1011.6,    0.7, -999.0
04-08-2023, 00:10:30,    294,    0.0,   11.5,   0.00,   0.00, 1011.6,    0.9, -999.0
04-08-2023, 00:10:40,    294,    0.0,   11.6,   0.00,   0.00, 1011.6,    0.6, -999.0
04-08-2023, 00:10:49,    294,    0.0,   11.6,   0.00,   0.00, 1011.6,    0.7, -999.0
04-08-2023, 00:10:59,    294,    0.0,   11.6,   0.00,   0.00, 1011.6,    0.7, -999.0
04-08-2023, 00:11:10,    295,    0.0,   11.6,   0.00,   0.00, 1011.6,    0.5, -999.0
04-08-2023, 00:11:19,    294,    0.0,   11.6,   0.00,   0.00, 1011.6,    0.7, -999.0
04-08-2023, 00:11:29,    295,    0.0,   11.6,   0.00,   0.00, 1011.6,    0.3, -999.0
04-08-2023, 00:11:39,    294,    0.0,   11.6,   0.00,   0.00, 1011.6,    0.5, -999.0
04-08-2023, 00:11:49,    294,    0.0,   11.6,   0.00,   0.00, 1011.6,    0.5, -999.0
04-08-2023, 00:11:59,    294,    0.0,   11.6,   0.00,   0.00, 1011.6,    0.5, -999.0
04-08-2023, 00:12:09,    294,    0.1,   11.6,   0.00,   0.00, 1011.6,    0.8, -999.0
04-08-2023, 00:12:19,    294,    0.0,   11.6,   0.00,   0.00, 1011.6,    0.6, -999.0
04-08-2023, 00:12:29,    294,    0.0,   11.6,   0.00,   0.00, 1011.6,    0.5, -999.0
04-08-2023, 00:12:39,    294,    0.0,   11.6,   0.00,   0.00, 1011.6,    0.7, -999.0
04-08-2023, 00:12:49,    294,    0.0,   11.6,   0.00,   0.00, 1011.6,    0.5, -999.0
04-08-2023, 00:12:59,    295,    0.0,   11.6,   0.00,   0.00, 1011.6,    0.5, -999.0
04-08-2023, 00:13:09,    294,    0.0,   11.6,   0.00,   0.00, 1011.6,    0.5, -999.0
04-08-2023, 00:13:19,    294,    0.0,   11.6,   0.00,   0.00, 1011.6,    0.6, -999.0
04-08-2023, 00:13:29,    294,    0.0,   11.6,   0.00,   0.00, 1011.6,    0.6, -999.0
04-08-2023, 00:13:39,    295,    0.0,   11.6,   0.00,   0.00, 1011.6,    0.8, -999.0
04-08-2023, 00:13:49,    295,    0.0,   11.6,   0.00,   0.00, 1011.6,    0.6, -999.0
04-08-2023, 00:14:01,    292,    0.0,   11.6,   0.00,   0.00, 1011.6,    0.7, -999.0
04-08-2023, 00:14:09,    295,    0.0,   11.6,   0.00,   0.00, 1011.6,    0.6, -999.0
04-08-2023, 00:14:19,    294,    0.0,   11.6,   0.00,   0.00, 1011.6,    0.7, -999.0
04-08-2023, 00:14:29,    294,    0.0,   11.6,   0.00,   0.00, 1011.6,    0.4, -999.0
04-08-2023, 00:14:39,    294,    0.0,   11.6,   0.00,   0.00, 1011.6,    0.8, -999.0
04-08-2023, 00:14:49,    295,    0.0,   11.5,   0.00,   0.00, 1011.6,    0.4, -999.0
04-08-2023, 00:14:59,    294,    0.0,   11.6,   0.00,   0.00, 1011.6,    0.5, -999.0
04-08-2023, 00:15:09,    294,    0.0,   11.5,   0.00,   0.00, 1011.6,    0.6, -999.0
04-08-2023, 00:15:19,    294,    0.0,   11.6,   0.00,   0.00, 1011.6,    0.9, -999.0
04-08-2023, 00:15:29,    294,    0.0,   11.6,   0.00,   0.00, 1011.6,    0.8, -999.0
04-08-2023, 00:15:39,    294,    0.0,   11.6,   0.00,   0.00, 1011.6,    1.0, -999.0
04-08-2023, 00:15:49,    294,    0.0,   11.6,   0.00,   0.00, 1011.6,    0.3, -999.0
04-08-2023, 00:15:59,    294,    0.0,   11.6,   0.00,   0.00, 1011.6,    0.3, -999.0
04-08-2023, 00:16:08,    294,    0.0,   11.6,   0.00,   0.00, 1011.6,    0.6, -999.0
04-08-2023, 00:16:19,    294,    0.0,   11.7,   0.00,   0.00, 1011.6,    1.3, -999.0
04-08-2023, 00:16:29,    295,    0.0,   11.6,   0.00,   0.00, 1011.6,    0.3, -999.0
04-08-2023, 00:16:39,    294,    0.0,   11.6,   0.00,   0.00, 1011.6,    0.7, -999.0
04-08-2023, 00:16:48,    294,    0.0,   11.5,   0.00,   0.00, 1011.6,    0.7, -999.0
04-08-2023, 00:16:59,    294,    0.0,   11.5,   0.00,   0.00, 1011.6,    0.6, -999.0
04-08-2023, 00:17:09,    294,    0.0,   11.5,   0.00,   0.00, 1011.6,    0.8, -999.0
04-08-2023, 00:17:18,    294,    0.0,   11.6,   0.00,   0.00, 1011.6,    0.3, -999.0
04-08-2023, 00:17:28,    294,    0.0,   11.6,   0.00,   0.00, 1011.6,    0.5, -999.0
04-08-2023, 00:17:39,    294,    0.0,   11.6,   0.00,   0.00, 1011.6,    0.9, -999.0
04-08-2023, 00:17:48,    294,    0.0,   11.6,   0.00,   0.00, 1011.6,    0.2, -999.0
04-08-2023, 00:17:58,    294,    0.0,   11.6,   0.00,   0.00, 1011.6,    0.9, -999.0
04-08-2023, 00:18:09,    295,    0.0,   11.6,   0.00,   0.00, 1011.6,    0.5, -999.0
04-08-2023, 00:18:18,    294,    0.0,   11.6,   0.00,   0.00, 1011.6,    0.7, -999.0
04-08-2023, 00:18:28,    294,    0.0,   11.7,   0.00,   0.00, 1011.6,    1.0, -999.0
04-08-2023, 00:18:38,    294,    0.0,   11.7,   0.00,   0.00, 1011.6,    0.3, -999.0
04-08-2023, 00:18:49,    294,    0.0,   11.6,   0.00,   0.00, 1011.6,    0.8, -999.0
04-08-2023, 00:18:58,    294,    0.0,   11.6,   0.00,   0.00, 1011.6,    0.5, -999.0
04-08-2023, 00:19:08,    294,    0.0,   11.6,   0.00,   0.00, 1011.6,    0.6, -999.0
04-08-2023, 00:19:18,    294,    0.0,   11.5,   0.00,   0.00, 1011.6,    0.7, -999.0
04-08-2023, 00:19:28,    294,    0.0,   11.6,   0.00,   0.00, 1011.6,    0.6, -999.0
04-08-2023, 00:19:38,    294,    0.0,   11.6,   0.00,   0.00, 1011.6,    0.7, -999.0
04-08-2023, 00:19:48,    294,    0.0,   11.7,   0.00,   0.00, 1011.6,    0.8, -999.0
04-08-2023, 00:19:58,    294,    0.0,   11.6,   0.00,   0.00, 1011.6,    0.5, -999.0
04-08-2023, 00:20:08,    294,    0.0,   11.6,   0.00,   0.00, 1011.6,    0.7, -999.0
04-08-2023, 00:20:18,    294,    0.0,   11.6,   0.00,   0.00, 1011.6,    0.8, -999.0
04-08-2023, 00:20:28,    295,    0.0,   11.6,   0.00,   0.00, 1011.6,    0.5, -999.0
04-08-2023, 00:20:38,    294,    0.0,   11.6,   0.00,   0.00, 1011.6,    0.8, -999.0
04-08-2023, 00:20:48,    294,    0.0,   11.7,   0.00,   0.00, 1011.6,    0.5, -999.0
04-08-2023, 00:20:58,    294,    0.0,   11.6,   0.00,   0.00, 1011.6,    0.8, -999.0
04-08-2023, 00:21:08,    294,    0.0,   11.6,   0.00,   0.00, 1011.6,    0.5, -999.0
04-08-2023, 00:21:18,    294,    0.0,   11.6,   0.00,   0.00, 1011.6,    0.6, -999.0
04-08-2023, 00:21:28,    294,    0.0,   11.6,   0.00,   0.00, 1011.6,    0.5, -999.0
04-08-2023, 00:21:38,    294,    0.0,   11.6,   0.00,   0.00, 1011.6,    1.4, -999.0
04-08-2023, 00:21:48,    294,    0.0,   11.6,   0.00,   0.00, 1011.6,    0.2, -999.0
04-08-2023, 00:21:58,    294,    0.0,   11.6,   0.00,   0.00, 1011.6,    1.0, -999.0
04-08-2023, 00:22:08,    294,    0.0,   11.6,   0.00,   0.00, 1011.6,    0.8, -999.0
04-08-2023, 00:22:18,    294,    0.0,   11.5,   0.00,   0.00, 1011.6,    0.5, -999.0
04-08-2023, 00:22:28,    294,    0.0,   11.6,   0.00,   0.00, 1011.6,    0.8, -999.0
04-08-2023, 00:22:38,    294,    0.0,   11.6,   0.00,   0.00, 1011.6,    0.5, -999.0
04-08-2023, 00:22:48,    294,    0.0,   11.6,   0.00,   0.00, 1011.6,    1.1, -999.0
04-08-2023, 00:22:58,    294,    0.0,   11.6,   0.00,   0.00, 1011.6,    0.3, -999.0
04-08-2023, 00:23:08,    294,    0.0,   11.6,   0.00,   0.00, 1011.6,    0.7, -999.0
04-08-2023, 00:23:17,    295,    0.0,   11.6,   0.00,   0.00, 1011.6,    0.4, -999.0
04-08-2023, 00:23:28,    294,    0.0,   11.6,   0.00,   0.00, 1011.6,    0.3, -999.0
04-08-2023, 00:23:38,    295,    0.0,   11.6,   0.00,   0.00, 1011.6,    0.6, -999.0
04-08-2023, 00:23:47,    293,    0.0,   11.6,   0.00,   0.00, 1011.6,    0.7, -999.0
04-08-2023, 00:23:58,    294,    0.0,   11.6,   0.00,   0.00, 1011.6,    0.7, -999.0
04-08-2023, 00:24:08,    294,    0.0,   11.6,   0.00,   0.00, 1011.6,    0.5, -999.0
04-08-2023, 00:24:17,    294,    0.0,   11.6,   0.00,   0.00, 1011.6,    0.5, -999.0
04-08-2023, 00:24:27,    294,    0.0,   11.6,   0.00,   0.00, 1011.6,    0.7, -999.0
04-08-2023, 00:24:38,    294,    0.0,   11.6,   0.00,   0.00, 1011.6,    0.7, -999.0
04-08-2023, 00:24:48,    294,    0.0,   11.6,   0.00,   0.00, 1011.6,    0.7, -999.0
04-08-2023, 00:24:57,    294,    0.0,   11.6,   0.00,   0.00, 1011.6,    0.5, -999.0
04-08-2023, 00:25:07,    294,    0.0,   11.5,   0.00,   0.00, 1011.6,    0.6, -999.0
04-08-2023, 00:25:18,    294,    0.0,   11.6,   0.00,   0.00, 1011.6,    0.5, -999.0
04-08-2023, 00:25:27,    294,    0.0,   11.6,   0.00,   0.00, 1011.6,    0.6, -999.0
04-08-2023, 00:25:37,    294,    0.0,   11.6,   0.00,   0.00, 1011.6,    0.8, -999.0
04-08-2023, 00:25:47,    293,    0.0,   11.6,   0.00,   0.00, 1011.6,    0.6, -999.0
04-08-2023, 00:25:57,    294,    0.0,   11.6,   0.00,   0.00, 1011.6,    0.7, -999.0
04-08-2023, 00:26:07,    294,    0.0,   11.6,   0.00,   0.00, 1011.6,    0.7, -999.0
04-08-2023, 00:26:17,    295,    0.0,   11.6,   0.00,   0.00, 1011.6,    0.5, -999.0
04-08-2023, 00:26:27,    294,    0.0,   11.6,   0.00,   0.00, 1011.6,    0.6, -999.0
04-08-2023, 00:26:37,    294,    0.0,   11.6,   0.00,   0.00, 1011.6,    0.6, -999.0
04-08-2023, 00:26:47,    294,    0.0,   11.6,   0.00,   0.00, 1011.6,    0.6, -999.0
04-08-2023, 00:26:57,    294,    0.0,   11.6,   0.00,   0.00, 1011.6,    0.6, -999.0
04-08-2023, 00:27:07,    294,    0.0,   11.7,   0.00,   0.00, 1011.6,    0.4, -999.0
04-08-2023, 00:27:17,    294,    0.0,   11.7,   0.00,   0.00, 1011.6,    0.8, -999.0
04-08-2023, 00:27:27,    294,    0.0,   11.7,   0.00,   0.00, 1011.6,    0.7, -999.0
04-08-2023, 00:27:37,    294,    0.0,   11.7,   0.00,   0.00, 1011.6,    0.6, -999.0
04-08-2023, 00:27:47,    294,    0.0,   11.7,   0.00,   0.00, 1011.6,    0.7, -999.0
04-08-2023, 00:27:57,    293,    0.0,   11.7,   0.00,   0.00, 1011.6,    0.7, -999.0
04-08-2023, 00:28:07,    292,    0.0,   11.7,   0.00,   0.00, 1011.6,    0.6, -999.0
04-08-2023, 00:28:17,    294,    0.0,   11.7,   0.00,   0.00, 1011.6,    0.4, -999.0
04-08-2023, 00:28:27,    294,    0.0,   11.7,   0.00,   0.00, 1011.6,    0.6, -999.0
04-08-2023, 00:28:37,    294,    0.0,   11.7,   0.00,   0.00, 1011.6,    0.7, -999.0
04-08-2023, 00:28:47,    294,    0.0,   11.7,   0.00,   0.00, 1011.6,    0.6, -999.0
04-08-2023, 00:28:57,    294,    0.0,   11.7,   0.00,   0.00, 1011.6,    0.7, -999.0
04-08-2023, 00:29:07,    294,    0.0,   11.7,   0.00,   0.00, 1011.6,    0.5, -999.0
04-08-2023, 00:29:17,    294,    0.0,   11.7,   0.00,   0.00, 1011.6,    0.8, -999.0
04-08-2023, 00:29:27,    294,    0.0,   11.7,   0.00,   0.00, 1011.6,    0.8, -999.0
04-08-2023, 00:29:37,    294,    0.0,   11.7,   0.00,   0.00, 1011.6,    0.6, -999.0
04-08-2023, 00:29:47,    295,    0.0,   11.7,   0.00,   0.00, 1011.6,    0.6, -999.0
04-08-2023, 00:29:57,    295,    0.0,   11.6,   0.00,   0.00, 1011.6,    0.6, -999.0
04-08-2023, 00:30:07,    294,    0.0,   11.7,   0.00,   0.00, 1011.6,    0.3, -999.0
04-08-2023, 00:30:16,    294,    0.0,   11.7,   0.00,   0.00, 1011.6,    0.7, -999.0
04-08-2023, 00:30:27,    294,    0.0,   11.7,   0.00,   0.00, 1011.6,    0.7, -999.0
04-08-2023, 00:30:37,    294,    0.0,   11.7,   0.00,   0.00, 1011.6,    0.4, -999.0
04-08-2023, 00:30:47,    294,    0.0,   11.6,   0.00,   0.00, 1011.6,    0.8, -999.0
04-08-2023, 00:30:56,    294,    0.0,   11.6,   0.00,   0.00, 1011.6,    0.5, -999.0
04-08-2023, 00:31:07,    295,    0.0,   11.7,   0.00,   0.00, 1011.6,    0.5, -999.0
04-08-2023, 00:31:17,    294,    0.0,   11.7,   0.00,   0.00, 1011.6,    0.6, -999.0
04-08-2023, 00:31:26,    295,    0.0,   11.7,   0.00,   0.00, 1011.5,    0.6, -999.0
04-08-2023, 00:31:36,    294,    0.0,   11.7,   0.00,   0.00, 1011.6,    0.6, -999.0
04-08-2023, 00:31:47,    294,    0.0,   11.6,   0.00,   0.00, 1011.6,    0.6, -999.0
04-08-2023, 00:31:56,    294,    0.0,   11.6,   0.00,   0.00, 1011.6,    0.7, -999.0
04-08-2023, 00:32:06,    295,    0.0,   11.8,   0.00,   0.00, 1011.6,    0.8, -999.0
04-08-2023, 00:32:16,    294,    0.0,   11.6,   0.00,   0.00, 1011.6,    0.5, -999.0
04-08-2023, 00:32:27,    294,    0.0,   11.7,   0.00,   0.00, 1011.6,    0.4, -999.0
04-08-2023, 00:32:36,    294,    0.0,   11.6,   0.00,   0.00, 1011.6,    0.5, -999.0
04-08-2023, 00:32:46,    294,    0.0,   11.6,   0.00,   0.00, 1011.6,    0.5, -999.0
04-08-2023, 00:32:56,    295,    0.0,   11.7,   0.00,   0.00, 1011.6,    0.7, -999.0
04-08-2023, 00:33:06,    294,    0.0,   11.6,   0.00,   0.00, 1011.6,    0.7, -999.0
04-08-2023, 00:33:16,    294,    0.0,   11.6,   0.00,   0.00, 1011.6,    0.5, -999.0
04-08-2023, 00:33:26,    294,    0.0,   11.6,   0.00,   0.00, 1011.6,    0.6, -999.0
04-08-2023, 00:33:36,    294,    0.0,   11.6,   0.00,   0.00, 1011.6,    0.4, -999.0
04-08-2023, 00:33:46,    294,    0.0,   11.6,   0.00,   0.00, 1011.6,    0.6, -999.0
04-08-2023, 00:33:56,    294,    0.0,   11.6,   0.00,   0.00, 1011.6,    0.7, -999.0
04-08-2023, 00:34:06,    294,    0.0,   11.6,   0.00,   0.00, 1011.6,    0.6, -999.0
04-08-2023, 00:34:16,    294,    0.0,   11.6,   0.00,   0.00, 1011.6,    0.6, -999.0
04-08-2023, 00:34:26,    294,    0.0,   11.6,   0.00,   0.00, 1011.6,    0.8, -999.0
04-08-2023, 00:34:36,    294,    0.0,   11.6,   0.00,   0.00, 1011.6,    0.6, -999.0
04-08-2023, 00:34:46,    294,    0.0,   11.6,   0.00,   0.00, 1011.6,    0.6, -999.0
04-08-2023, 00:34:56,    294,    0.0,   11.6,   0.00,   0.00, 1011.6,    0.5, -999.0
04-08-2023, 00:35:06,    294,    0.0,   11.6,   0.00,   0.00, 1011.6,    0.5, -999.0
04-08-2023, 00:35:16,    294,    0.0,   11.6,   0.00,   0.00, 1011.6,    0.4, -999.0
04-08-2023, 00:35:26,    294,    0.0,   11.6,   0.00,   0.00, 1011.6,    0.7, -999.0
04-08-2023, 00:35:36,    294,    0.0,   11.6,   0.00,   0.00, 1011.6,    0.6, -999.0
04-08-2023, 00:35:46,    294,    0.0,   11.6,   0.00,   0.00, 1011.6,    0.5, -999.0
04-08-2023, 00:35:56,    294,    0.0,   11.6,   0.00,   0.00, 1011.6,    0.7, -999.0
04-08-2023, 00:36:06,    294,    0.0,   11.6,   0.00,   0.00, 1011.6,    0.6, -999.0
04-08-2023, 00:36:16,    294,    0.0,   11.6,   0.00,   0.00, 1011.6,    0.4, -999.0
04-08-2023, 00:36:26,    294,    0.0,   11.6,   0.00,   0.00, 1011.6,    0.8, -999.0
04-08-2023, 00:36:36,    294,    0.0,   11.5,   0.00,   0.00, 1011.6,    0.7, -999.0
04-08-2023, 00:36:45,    294,    0.0,   11.5,   0.00,   0.00, 1011.6,    0.5, -999.0
04-08-2023, 00:36:56,    294,    0.0,   11.5,   0.00,   0.00, 1011.5,    0.7, -999.0
04-08-2023, 00:37:06,    294,    0.0,   11.6,   0.00,   0.00, 1011.6,    0.5, -999.0
04-08-2023, 00:37:15,    294,    0.0,   11.6,   0.00,   0.00, 1011.6,    0.7, -999.0
04-08-2023, 00:37:25,    294,    0.0,   11.6,   0.00,   0.00, 1011.6,    0.5, -999.0
04-08-2023, 00:37:36,    294,    0.0,   11.6,   0.00,   0.00, 1011.6,    0.5, -999.0
04-08-2023, 00:37:46,    294,    0.0,   11.6,   0.00,   0.00, 1011.6,    0.6, -999.0
04-08-2023, 00:37:55,    294,    0.0,   11.6,   0.00,   0.00, 1011.6,    0.4, -999.0
04-08-2023, 00:38:06,    294,    0.0,   11.6,   0.00,   0.00, 1011.6,    0.6, -999.0
04-08-2023, 00:38:16,    294,    0.0,   11.5,   0.00,   0.00, 1011.6,    0.6, -999.0
04-08-2023, 00:38:25,    294,    0.0,   11.6,   0.00,   0.00, 1011.6,    0.8, -999.0
04-08-2023, 00:38:35,    294,    0.0,   11.6,   0.00,   0.00, 1011.6,    0.5, -999.0
04-08-2023, 00:38:46,    294,    0.0,   11.6,   0.00,   0.00, 1011.6,    0.8, -999.0
04-08-2023, 00:38:55,    294,    0.0,   11.6,   0.00,   0.00, 1011.6,    0.7, -999.0
04-08-2023, 00:39:05,    294,    0.0,   11.7,   0.00,   0.00, 1011.6,    0.9, -999.0
04-08-2023, 00:39:15,    295,    0.0,   11.6,   0.00,   0.00, 1011.6,    0.4, -999.0
04-08-2023, 00:39:26,    294,    0.0,   11.7,   0.00,   0.00, 1011.6,    0.5, -999.0
04-08-2023, 00:39:35,    295,    0.0,   11.5,   0.00,   0.00, 1011.6,    0.4, -999.0
04-08-2023, 00:39:45,    295,    0.0,   11.6,   0.00,   0.00, 1011.6,    0.6, -999.0
04-08-2023, 00:39:55,    294,    0.0,   11.7,   0.00,   0.00, 1011.6,    0.6, -999.0
04-08-2023, 00:40:05,    294,    0.0,   11.6,   0.00,   0.00, 1011.6,    0.7, -999.0
04-08-2023, 00:40:15,    294,    0.0,   11.6,   0.00,   0.00, 1011.6,    0.4, -999.0
04-08-2023, 00:40:25,    294,    0.0,   11.6,   0.00,   0.00, 1011.6,    0.7, -999.0
04-08-2023, 00:40:35,    313,    0.0,   11.6,   0.00,   0.00, 1011.6,    0.5, -999.0
04-08-2023, 00:40:45,    312,    0.0,   11.5,   0.00,   0.00, 1011.6,    0.7, -999.0
04-08-2023, 00:40:55,    312,    0.5,   11.6,   0.00,   0.00, 1011.7,    1.4, -999.0
04-08-2023, 00:41:05,    312,    0.3,   11.7,   0.00,   0.00, 1011.7,    0.6, -999.0
04-08-2023, 00:41:15,    312,    0.4,   11.6,   0.00,   0.00, 1011.7,    0.6, -999.0
04-08-2023, 00:41:25,    312,    0.1,   11.7,   0.00,   0.00, 1011.7,    0.9, -999.0
04-08-2023, 00:41:35,    312,    0.0,   11.6,   0.00,   0.00, 1011.6,    0.5, -999.0
04-08-2023, 00:41:45,    312,    0.0,   11.6,   0.00,   0.00, 1011.6,    0.5, -999.0
04-08-2023, 00:41:55,    313,    0.0,   11.6,   0.00,   0.00, 1011.6,    0.5, -999.0
04-08-2023, 00:42:05,    312,    0.0,   11.6,   0.00,   0.00, 1011.6,    0.5, -999.0
04-08-2023, 00:42:15,    312,    0.0,   11.6,   0.00,   0.00, 1011.6,    0.3, -999.0
04-08-2023, 00:42:25,    312,    0.0,   11.6,   0.00,   0.00, 1011.6,    0.4, -999.0
04-08-2023, 00:42:35,    312,    0.0,   11.6,   0.00,   0.00, 1011.6,    0.7, -999.0
04-08-2023, 00:42:45,    312,    0.0,   11.6,   0.00,   0.00, 1011.6,    0.4, -999.0
04-08-2023, 00:42:55,    312,    0.0,   11.6,   0.00,   0.00, 1011.6,    0.5, -999.0
04-08-2023, 00:43:05,    311,    0.0,   11.5,   0.00,   0.00, 1011.6,    0.4, -999.0
04-08-2023, 00:43:15,    312,    0.0,   11.6,   0.00,   0.00, 1011.6,    0.5, -999.0
04-08-2023, 00:43:25,    312,    0.0,   11.6,   0.00,   0.00, 1011.6,    0.4, -999.0
04-08-2023, 00:43:35,    312,    0.0,   11.5,   0.00,   0.00, 1011.6,    0.6, -999.0
04-08-2023, 00:43:44,    312,    0.0,   11.6,   0.00,   0.00, 1011.6,    0.7, -999.0
04-08-2023, 00:43:55,    312,    0.0,   11.6,   0.00,   0.00, 1011.6,    0.7, -999.0
04-08-2023, 00:44:05,    312,    0.0,   11.6,   0.00,   0.00, 1011.6,    0.6, -999.0
04-08-2023, 00:44:15,    312,    0.0,   11.6,   0.00,   0.00, 1011.6,    0.6, -999.0
04-08-2023, 00:44:24,    311,    0.0,   11.6,   0.00,   0.00, 1011.6,    0.7, -999.0
04-08-2023, 00:44:35,    311,    0.0,   11.6,   0.00,   0.00, 1011.6,    0.7, -999.0
04-08-2023, 00:44:45,    312,    0.0,   11.6,   0.00,   0.00, 1011.6,    0.6, -999.0
04-08-2023, 00:44:54,    311,    0.0,   11.6,   0.00,   0.00, 1011.6,    0.4, -999.0
04-08-2023, 00:45:04,    311,    0.4,   11.7,   0.00,   0.00, 1011.7,    1.1, -999.0
04-08-2023, 00:45:15,    307,    0.0,   11.6,   0.00,   0.00, 1011.6,    0.6, -999.0
04-08-2023, 00:45:24,    306,    0.2,   11.7,   0.00,   0.00, 1011.7,    0.6, -999.0
04-08-2023, 00:45:34,    331,    0.1,   11.7,   0.00,   0.00, 1011.6,    0.4, -999.0
04-08-2023, 00:45:44,    334,    0.7,   11.7,   0.00,   0.00, 1011.7,    1.0, -999.0
04-08-2023, 00:45:54,    335,    0.4,   11.8,   0.00,   0.00, 1011.8,    0.6, -999.0
04-08-2023, 00:46:04,    334,    0.1,   11.6,   0.00,   0.00, 1011.7,    0.6, -999.0
04-08-2023, 00:46:14,    334,    0.0,   11.6,   0.00,   0.00, 1011.6,    0.6, -999.0
04-08-2023, 00:46:25,    334,    0.0,   11.6,   0.00,   0.00, 1011.6,    0.7, -999.0
04-08-2023, 00:46:34,    334,    0.0,   11.6,   0.00,   0.00, 1011.6,    0.9, -999.0
04-08-2023, 00:46:44,    335,    0.8,   11.7,   0.00,   0.00, 1011.7,    0.6, -999.0